Dewpoint
59 61 61 61 60 59 58 58 56 54 53 53 55 56 55 56 56 57 56 61 62 64 63 63 64 65 65 64 64 64 63 63 63 64 62 63 64 63 61 59 58 58 57
58 58 57 58 57 57 56 55 54 55 54 56 56 56 56 56 56 57 58 59 63 64 65 65 65 65 65 62 63 64 64 63 62 61 61 61 63 64 63 62 61 60 58
57 57 57 58 58 58 57 57 56 57 57 57 57 57 57 57 57 57 57 59 61 63 64 65 65 64 64 64 63 64 64 62 60 60 59 60 60 61 61 62 62 62 61
58 60 62 61 61 60 59 58 58 57 56 56 57 57 57 58 57 56 55 56 58 59 62 64 65 64 63 63 64 64 63 61 59 58 58 58 58 58 58 60 61 62 63
61 62 63 63 61 61 59 59 57 55 54 55 57 57 58 58 57 54 54 54 56 57 57 62 63 62 62 63 64 64 62 60 58 57 56 57 58 57 57 57 58 59 61
63 63 63 63 62 61 60 59 57 56 55 56 57 57 57 57 56 56 55 53 55 57 58 58 60 61 62 63 65 63 61 59 58 57 57 57 57 57 57 56 59 60 61
64 64 63 62 63 62 60 58 57 56 55 59 58 58 56 55 55 54 54 53 55 56 56 57 60 60 59 61 63 62 60 58 57 55 55 56 56 56 57 59 58 58 57
65 65 64 63 63 62 61 59 57 58 60 61 58 56 53 52 54 53 54 53 52 55 55 56 58 60 58 57 58 58 58 56 55 54 56 57 57 57 58 58 58 57 57
64 64 64 64 63 63 62 62 62 61 60 61 60 57 51 48 50 54 53 52 51 52 55 56 56 55 54 55 55 54 56 56 55 55 55 56 57 57 56 56 56 57 58
64 64 63 63 63 63 62 62 62 60 60 59 60 58 55 53 48 43 51 52 52 51 52 52 54 54 53 52 53 54 55 56 53 53 54 54 55 55 55 55 56 56 56
63 64 63 63 63 62 61 61 60 59 59 57 56 54 50 50 52 50 46 49 52 51 52 51 52 52 51 51 51 52 53 54 55 56 57 56 55 53 53 53 53 54 54
61 61 62 62 62 61 60 60 58 58 58 57 56 53 51 49 49 49 48 48 47 49 51 51 51 51 51 49 49 51 52 52 52 52 53 54 52 51 51 51 52 53 53
60 61 62 61 61 60 60 60 59 59 58 57 55 53 52 51 52 51 49 48 46 47 49 50 50 50 48 49 48 50 50 50 50 51 53 52 50 49 49 49 50 50 51
60 60 61 61 60 60 60 59 59 58 56 55 53 52 52 52 52 51 50 48 46 46 47 47 49 49 48 48 47 47 49 49 48 49 50 50 48 47 46 46 47 47 49
61 61 61 61 61 60 60 59 58 56 54 53 52 52 50 51 51 51 51 50 47 43 43 46 46 45 46 46 45 45 45 47 47 48 47 47 46 46 45 45 45 45 46
60 59 60 60 60 60 59 57 55 52 51 51 50 50 50 50 50 50 49 50 49 47 44 46 46 45 45 44 44 43 43 44 44 45 45 44 44 42 42 42 42 42 43
58 58 57 56 54 54 53 52 50 49 48 47 47 48 48 49 49 49 48 49 49 48 46 45 43 44 45 42 41 40 39 40 42 42 42 42 41 40 39 38 38 38 41
55 54 53 53 52 50 48 47 46 47 45 46 45 46 46 47 47 47 47 46 45 45 46 45 44 42 43 43 41 37 32 33 40 41 41 40 39 38 37 37 37 37 38
51 49 48 48 47 46 46 46 47 46 45 44 45 44 44 45 45 45 45 44 43 43 44 44 43 43 42 40 39 36 32 30 29 36 34 36 38 36 35 36 38 38 38
48 45 45 44 44 44 44 44 44 44 43 43 44 44 44 45 44 44 43 42 42 41 41 41 41 42 40 39 38 36 34 32 29 24 30 31 30 28 32 34 36 38 37
46 45 43 43 43 43 43 43 43 43 43 43 43 43 43 42 42 43 42 42 41 40 40 40 39 40 37 35 36 36 35 33 31 31 29 26 26 27 30 35 35 36 38
43 43 42 42 43 41 44 45 43 42 42 42 41 41 40 40 40 40 40 38 39 40 39 38 38 37 37 36 35 34 34 32 32 29 26 25 26 26 30 33 35 35 35
42 42 41 41 41 41 45 45 44 42 41 41 40 40 38 38 39 37 38 37 36 35 35 37 37 37 35 36 34 33 33 33 29 27 25 23 25 25 29 33 35 35 35
41 41 41 41 41 41 44 44 44 40 40 39 39 39 38 36 36 36 35 31 28 27 28 28 33 35 36 36 35 35 34 27 25 24 25 22 23 23 28 30 34 33 34
41 41 41 40 40 40 44 44 43 40 40 39 40 39 38 34 37 38 34 30 25 27 31 30 32 34 35 38 34 31 26 24 23 24 25 25 23 24 24 27 30 33 32
40 39 40 40 41 40 44 44 43 40 38 39 39 39 41 34 37 38 31 28 24 25 30 30 30 30 31 31 31 29 27 23 22 21 25 24 23 23 20 27 27 28 28
Lifted_Index
3 3 4 4 4 5 5 6 6 6 6 6 5 5 4 4 4 4 4 3 3 4 3 3 2 1 1 1 1 1 2 2 2 3 3 2 2 2 3 3 4 4 5
3 3 4 4 4 5 5 5 6 6 5 5 5 4 4 4 3 3 3 3 3 3 3 2 1 1 1 1 1 1 2 2 3 3 4 3 3 3 3 3 3 4 4
3 3 4 4 4 4 4 4 5 4 4 4 4 3 3 3 3 3 3 3 3 3 3 2 1 1 1 1 1 1 2 3 4 4 5 4 4 4 4 4 3 3 3
3 3 3 3 3 3 3 4 4 3 3 3 3 2 2 2 2 2 2 3 3 3 3 2 2 1 1 1 1 1 2 4 4 5 5 5 5 5 5 5 4 3 2
2 1 1 1 1 2 2 3 3 3 3 3 2 1 1 2 2 2 2 3 3 3 3 2 2 2 2 1 1 1 3 4 5 5 6 6 6 6 6 6 5 3 2
0 0 -0 0 0 1 1 1 1 2 2 2 1 1 1 1 2 2 2 3 3 3 3 2 2 2 2 1 1 2 3 4 5 6 6 6 6 6 6 6 4 3 3
-0 -1 -1 -1 -1 -1 -1 -0 0 1 1 1 0 0 1 1 2 2 2 3 3 3 3 3 2 2 2 2 2 2 3 4 5 6 6 6 6 6 6 5 4 3 3
-1 -1 -2 -2 -2 -2 -2 -2 -1 -1 -1 -1 -0 0 1 2 2 2 3 3 4 4 3 3 3 3 3 3 3 3 3 4 5 6 6 6 6 5 5 4 4 4 4
-1 -2 -2 -2 -2 -2 -2 -2 -2 -2 -2 -1 -0 1 1 2 3 3 3 4 4 4 4 4 4 4 4 4 4 4 4 5 5 6 6 6 5 5 5 5 5 4 4
-1 -1 -1 -1 -1 -1 -2 -2 -2 -2 -1 -0 0 1 2 3 4 4 4 4 4 5 5 5 5 5 5 5 5 5 5 6 6 6 6 6 6 6 6 6 6 5 5
-0 -0 -0 -0 -0 -0 -1 -1 -2 -1 -1 0 1 2 3 3 4 4 4 4 4 5 5 5 6 6 6 7 7 7 6 6 6 6 6 6 6 6 7 7 7 6 6
1 0 0 0 0 0 -0 -0 -1 -0 1 1 1 2 2 3 3 3 3 3 4 5 6 6 7 7 8 8 8 8 7 7 7 7 7 7 7 7 8 8 8 8 7
1 1 1 1 1 1 0 0 1 1 1 2 2 2 2 2 2 2 3 3 5 6 6 7 8 8 9 9 9 9 8 7 7 7 8 8 8 8 8 8 9 9 9
1 1 1 1 1 1 0 1 1 1 2 2 2 1 1 1 2 3 4 5 5 6 7 8 8 8 9 10 10 9 8 8 8 8 8 8 8 8 8 8 9 9 9
0 0 0 0 0 0 0 1 1 1 1 1 1 1 2 3 4 5 5 6 6 7 8 8 8 8 8 9 10 9 9 9 9 9 9 8 8 8 8 8 9 10 9
-0 -0 -0 -0 -0 -0 -0 -0 0 0 0 0 1 2 4 4 5 6 6 7 8 8 8 8 8 8 8 9 10 10 10 10 9 9 9 9 9 8 9 9 10 10 10
1 1 0 0 -0 -1 -1 -1 -1 -1 -0 0 2 3 5 5 6 6 7 8 9 9 8 8 9 9 9 10 10 10 10 10 10 10 9 9 9 9 9 10 11 12 12
2 2 1 1 0 -1 -1 -1 -1 -1 -0 1 3 4 5 6 6 7 8 8 9 9 8 8 8 9 10 10 10 10 10 10 10 10 10 9 9 9 10 11 12 14 14
4 3 3 2 1 -0 -1 -1 -1 -1 0 2 3 5 6 6 6 7 8 8 9 9 9 8 8 9 10 10 11 11 10 10 10 10 10 10 10 10 11 12 14 15 15
5 4 4 2 1 0 -0 -0 -0 0 1 3 4 5 6 6 7 8 8 8 9 9 8 8 8 8 9 10 11 11 10 10 10 10 10 10 10 11 13 15 16 16 16
6 5 5 4 3 2 1 1 1 1 2 3 5 5 6 7 7 8 8 8 8 8 8 7 7 7 8 9 10 10 10 10 10 10 11 11 12 13 15 16 17 16 16
6 6 5 5 4 3 2 2 2 2 3 4 5 5 6 6 7 7 8 8 8 8 8 8 8 8 9 10 10 10 10 10 10 11 12 13 14 15 16 17 17 17 17
6 5 5 5 4 4 3 3 3 4 4 5 5 5 5 6 7 7 8 8 9 9 9 10 9 10 10 10 10 10 10 11 11 13 14 14 15 16 17 17 17 17 17
6 5 5 5 4 4 3 3 4 4 5 5 5 5 5 6 6 7 7 8 9 10 11 13 12 12 11 11 11 11 12 12 13 14 14 14 15 15 16 17 18 18 17
6 5 5 4 4 4 4 4 4 4 4 4 5 5 5 6 6 7 7 7 8 9 12 15 15 14 13 12 12 12 13 13 12 13 14 14 13 14 15 16 17 17 17
6 5 5 4 4 4 4 4 4 4 4 4 4 5 5 5 6 7 7 7 7 9 12 16 16 16 15 14 14 14 14 13 12 12 13 13 13 13 13 15 16 16 16